Regional Weather Roundup
Issued by NWS Sioux Falls, SD

Home | Current Version | Previous Version | Graphics & Text | Print | Product List | Glossary On
Versions: 1 2 3 4 5 6 7 8 9 10 11 12 13 14 15 16 17 18 19 20 21 22 23 24 25 26 27 28 29 30 31 32 33 34 35 36 37 38 39 40 41 42 43 44 45 46 47 48 49 50
000
ASUS43 KFSD 270010
RWRFSD

WEATHER ROUNDUP FOR SE SOUTH DAKOTA/SW MINNESOTA/NW IOWA
NATIONAL WEATHER SERVICE SIOUX FALLS SD
600 PM CST THU FEB 26 2015

NOTE: "FAIR" INDICATES FEW OR NO CLOUDS BELOW 12,000 FEET WITH NO
SIGNIFICANT WEATHER AND OR OBSTRUCTIONS TO VISIBILITY.


SDZ038>040-050-052>070-270100-
SOUTHEAST SOUTH DAKOTA

CITY           SKY/WX    TMP DP  RH WIND       PRES   REMARKS
CHAMBERLAIN    CLEAR      9  -5  52 N13       30.52R WCI  -6
6HR MIN TEMP:   7; 6HR MAX TEMP:  13;

HURON          CLEAR      2  -8  63 N9        30.55S WCI -13
6HR MIN TEMP:   1; 6HR MAX TEMP:   6;

MADISON        FAIR       0  -4  85 NW13      30.47R WCI -18
MITCHELL       CLEAR      5  -4  66 NW12      30.56R WCI -11
6HR MIN TEMP:   5; 6HR MAX TEMP:   9;

SIOUX FALLS    PTCLDY     2  -5  72 NW14      30.50R WCI -16
6HR MIN TEMP:   2; 6HR MAX TEMP:   6;

WINNER         FAIR      11  -7  44 N12       30.48S WCI  -3
YANKTON        CLEAR      9  -6  52 NW12      30.54S WCI  -6
$$

MNZ071-072-080-081-089-090-097-098-270100-
SOUTHWEST MINNESOTA

CITY           SKY/WX    TMP DP  RH WIND       PRES   REMARKS
FAIRMONT       PTCLDY     1  -8  66 NW12      30.45R WCI -15
JACKSON        PTCLDY     1  -8  66 NW17      30.45R WCI -19
LUVERNE        CLEAR      3  -6  66 NW8       30.49R WCI -10
MARSHALL       CLEAR      0  -8  71 N12       30.50F WCI -18
6HR MIN TEMP:   0; 6HR MAX TEMP:   3;

MONTEVIDEO     CLEAR      1  -8  66 N9        30.52S WCI -14
PIPESTONE      CLEAR      1  -6  71 N12G17    30.44S WCI -15
REDWOOD FALLS  PTCLDY     2  -7  66 NW10      30.50R WCI -14
TRACY          PTCLDY     1  -6  73 N13       30.48S WCI -17
WINDOM         PTCLDY     0  -6  78 NW12      30.46R WCI -18
WORTHINGTON    CLEAR     23 -11  21 N10       30.47R WCI  12
$$

IAZ001>003-012>014-020>022-031-032-NEZ013-014-SDZ071-270100-
NORTHWEST IOWA

CITY           SKY/WX    TMP DP  RH WIND       PRES   REMARKS
CHEROKEE       CLEAR      3  -5  69 NW8       30.50S WCI -11
DENISON        PTCLDY     3  -6  66 N8        30.49R WCI -10
ESTHERVILLE    CLEAR      0  -8  69 N10       30.46S WCI -16
LE MARS        CLEAR      5  -2  72 NW9       30.52S WCI  -9
ORANGE CITY    CLEAR      5  -6  61 NW8       30.48S WCI  -8
SHELDON        MOCLDY     1  -8  66 NW12      30.48R WCI -15
SIOUX CITY     PTCLDY     8  -3  61 NW16      30.53R WCI -10
6HR MIN TEMP:   7; 6HR MAX TEMP:  12;

SPENCER        PTCLDY     2  -6  69 NW12      30.47S WCI -15
6HR MIN TEMP:   2; 6HR MAX TEMP:   7; 6HR PCP: TRACE;

STORM LAKE     CLEAR      1  -6  71 NW12      30.47S WCI -15
$$

ABBREVIATIONS USED IN REMARKS
   TC - TEMPERATURE IN CELSIUS
  WCI - WIND CHILL INDEX
   HX - HEAT INDEX
  VSB - VISIBILITY



USA.gov is the U.S. government's official web portal to all federal, state and local government web resources and services.